Location: Newark
(49.8348°N, 24.0280°E)
Time: 00:25:08
(UTC+00:00)

Vanguard 2 Rocket - Visible Passes

Search period start: 18 January 2020 00:00
Search period end: 28 January 2020 00:00
Orbit: 554 x 3326 km, 32.9° (Epoch: 17 January)

Date Brightness Start Highest point End Pass type
(mag) Time Alt. Az. Time Alt. Az. Time Alt. Az.
19 Jan 9.5 04:48:47 10° S 04:52:38 16° SSE 04:57:37 10° ESE visible
21 Jan 9.3 05:01:49 10° SSW 05:06:00 18° SSE 05:11:39 10° ESE visible
22 Jan 9.3 04:04:53 10° S 04:07:00 12° SSE 04:09:27 10° SE visible
23 Jan 9.1 05:15:20 10° SSW 05:19:32 19° SSE 05:25:18 10° ESE visible
24 Jan 9.0 04:17:41 10° S 04:20:27 14° SSE 04:23:51 10° SE visible
25 Jan 9.0 05:29:11 10° SW 05:33:11 19° S 05:38:36 10° SE visible
26 Jan 8.9 04:31:09 10° SSW 04:34:03 15° SSE 04:37:37 10° SE visible
27 Jan 8.8 03:34:10 10° S 03:35:03 10° SSE 03:35:59 10° SSE visible
